Simultaneous Nadir Overpasses (SNOs) Predictions

Prediction of SNOs between NPP and TERRA Satellite Orbit:

Table of predicted SNOs for the next 14.0 days since TLE Epoch: 4/29/2023
Index Date (NPP) Time (NPP) Lat,Lon (NPP) SZA (NPP ) Date (TERRA) Time (TERRA) Lat,Lon (TERRA) SZA (TERRA ) Distance(km) Time Diff (sec)
1 05/01/2023 07:12:50 70.90, 67.57 55.81 05/01/2023 07:13:31 70.89, 67.59 55.79 1.25 41
2 05/01/2023 08:03:32 -70.81,-124.96 124.30 05/01/2023 08:02:56 -70.78,-124.91 124.32 3.19 36
3 05/03/2023 20:06:41 70.84,-125.82 55.00 05/03/2023 20:07:02 70.83,-125.89 54.98 3.02 21
4 05/03/2023 20:57:23 -70.75, 41.65 125.11 05/03/2023 20:56:27 -70.73, 41.61 125.13 2.83 56
5 05/06/2023 08:09:54 -71.21,-127.22 125.34 05/06/2023 08:11:05 -71.11,-126.52 125.47 27.63 71
6 05/06/2023 09:00:33 70.85, 40.70 54.28 05/06/2023 09:00:31 70.86, 40.75 54.28 2.19 2
7 05/06/2023 09:51:11 -70.55,-151.49 126.05 05/06/2023 09:49:59 -70.60,-151.99 125.99 19.31 72
8 05/08/2023 21:03:39 -70.91, 39.82 126.36 05/08/2023 21:04:37 -70.89, 39.75 126.38 3.30 58
9 05/08/2023 21:54:23 70.81,-152.71 53.54 05/08/2023 21:54:00 70.80,-152.73 53.53 1.40 23
10 05/11/2023 09:57:31 -70.93,-153.69 127.01 05/11/2023 09:58:05 -70.92,-153.60 127.02 3.09 34
11 05/11/2023 10:48:14 70.78, 13.86 52.84 05/11/2023 10:47:29 70.77, 13.83 52.83 1.68 45



Historial Predications of SNOs between NPP and TERRA
